Regional Weather Roundup
Issued by NWS

Home | Current Version | Previous Version | Text Only | Print | Product List | Glossary Off
Versions: 1 2 3 4 5 6 7 8 9 10 11 12 13 14 15 16 17 18 19 20 21 22 23 24 25 26 27 28 29 30 31 32 33 34 35 36 37 38 39 40 41 42 43 44 45 46 47 48 49 50

000
ASUS43 KMPX 020701
RWRMN
WEATHER ROUNDUP FOR MINNESOTA
NATIONAL WEATHER SERVICE TWIN CITIES/CHANHASSEN MN
200 AM CDT TUE JUN 02 2015


NOTE: "FAIR" INDICATES FEW OR NO CLOUDS BELOW 12,000 FEET WITH NO
SIGNIFICANT WEATHER AND/OR OBSTRUCTIONS TO VISIBILITY. N/A MEANS
CURRENT SKY AND/OR WEATHER CONDITIONS ARE NOT AVAILABLE.

MNZ060>063-068>070-020800-
   Twin Cities Metro

CITY           SKY/WX    TMP DP  RH WIND       PRES   REMARKS
TWIN CITIES    PTCLDY    56  41  57 SE12      30.09F
ST PAUL        PTCLDY    56  44  64 SE9       30.10F
CRYSTAL        PTCLDY    60  41  49 S12       30.07F
BLAINE         PTCLDY    59  45  58 SE8       30.08F
LAKEVILLE      CLEAR     54  43  66 SE6       30.10F
EDEN PRAIRIE   CLEAR     57  41  55 SE10      30.07F
SOUTH ST PAUL  PTCLDY    57  42  57 SE6       30.10F
LAKE ELMO      FAIR      54  45  71 SE6       30.11F
$$
MNZ001>005-007-008-013>017-022>024-027-028-020800-
   Northwest Minnesota

CITY           SKY/WX    TMP DP  RH WIND       PRES   REMARKS
BEMIDJI        MOCLDY    56  38  49 S8        29.99S
HALLOCK        CLOUDY    59  52  77 S20       29.87R
ROSEAU         CLOUDY    61  45  55 S15       29.90R
WARROAD        CLOUDY    59  45  58 S6        29.92R
THIEF RVR FALL CLOUDY    59  46  63 S12       29.93R THUNDER
CROOKSTON      RAIN      59  48  67 S16       29.90S
FOSSTON        CLOUDY    61  43  51 S15       29.93F
MOORHEAD       CLOUDY    64  45  48 S20G26    29.90S
PARK RAPIDS    CLOUDY    58  38  47 SE13      29.99F
MAHNOMEN       PTSUNNY   62  43  49 S14G23    29.94S
$$
MNZ006-009>011-018-025>026-020800-
   North Central Minnesota

CITY           SKY/WX    TMP DP  RH WIND       PRES   REMARKS
BAUDETTE       CLOUDY    56  37  49 S9        29.95F
FLAG ISLAND    CLOUDY    59  46  63 SE13      29.92S
INTL FALLS     CLOUDY    58  38  47 S9        29.99F
WASKISH        CLOUDY    59  39  47 S12G20    29.96S
BIG FORK       CLOUDY    55  37  50 S7        30.03S
LONGVILLE      MOCLDY    57  43  58 SE8       30.02F
GRAND RAPIDS   MOCLDY    48  34  57 SE10      30.05S
CRANE LAKE     CLOUDY    52  30  43 SE5       30.06F
ORR            MOCLDY    50  28  43 SE7       30.02F
COOK           MOCLDY    48  32  53 SE6       30.06F
WALKER         CLOUDY    58  39  49 S7G16     30.00S
$$
MNZ012-019>021-037-020800-
   Northeast Minnesota

CITY           SKY/WX    TMP DP  RH WIND       PRES   REMARKS
DULUTH         CLOUDY    45  29  53 E8        30.10F
ELY            CLOUDY    50  32  50 SE6       30.08F
HIBBING        CLOUDY    45  31  58 SE5       30.07F
EVELETH        MOCLDY    45  32  61 CALM      30.09F
DULUTH HARBOR  MOCLDY    45  36  70 NE8       30.13F
TWO HARBORS    MOCLDY    43  36  75 CALM      30.10F
SILVER BAY     PTCLDY    37  32  81 CALM      30.10F
GRAND MARAIS     N/A     42  34  73 CALM      30.12F
G MARAIS ARPRT CLEAR     37  28  70 CALM      30.13F
$$
MNZ029>031-032-039>041-046>048-054>057-064-020800-
   West Central Minnesota

CITY           SKY/WX    TMP DP  RH WIND       PRES   REMARKS
FERGUS FALLS   MOCLDY    63  43  48 S18G25    29.95F
WHEATON        PTCLDY    59  46  63 SE18      29.95S
MORRIS         PTCLDY    59  43  55 SE15      29.98R
ALEXANDRIA     MOCLDY    59  40  49 S10       30.02S
ELBOW LAKE     FAIR      61  42  49 SE18G24   29.97R
WADENA         CLOUDY    57  41  54 SE7       29.99F
GLENWOOD       PTCLDY    57  41  54 SE10      30.02S
APPLETON       CLEAR     63  43  48 S10       29.98S
BENSON         CLEAR     61  37  41 S9        29.99F
ORTONVILLE     CLEAR     61  46  59 SE10      29.96S
MADISON        PTCLDY    61  46  59 SE14      29.97S
WILLMAR        FAIR      61  39  44 SE13      30.03F
$$
MNZ033>034-036-042>043-049>051-058-059-020800-
   Central Minnesota

CITY           SKY/WX    TMP DP  RH WIND       PRES   REMARKS
ST CLOUD       PTCLDY    56  42  59 SE7       30.06S
SAUK CENTRE    FAIR      57  40  53 SE8       30.03S
PAYNESVILLE    CLEAR     57  39  52 E9        30.04S
AITKIN         MOCLDY    57  43  58 S8        30.04S
PINE RIVER     CLOUDY    57  43  58 SE8       30.06S
BRAINERD       CLOUDY    58  41  53 S9        30.04F
STAPLES        CLOUDY    57  39  51 SE10      30.02S
LONG PRAIRIE   FAIR      57  39  51 SE12      30.03S
LITTLE FALLS   MOCLDY    54  39  58 SE6       30.04S
LITCHFIELD     PTCLDY    61  43  51 SE7       30.05F
BUFFALO        PTCLDY    57  42  58 SE6       30.07F
MAPLE LAKE     PTCLDY    58  46  62 SE5       30.07F
$$
MNZ037-044-045-052-053-020800-
   East Central Minnesota

CITY           SKY/WX    TMP DP  RH WIND       PRES   REMARKS
PRINCETON      MOCLDY    57  45  62 SE7       30.07F
MORA           MOCLDY    54  39  58 SE3       30.09F
CAMBRIDGE      MOCLDY    59  45  58 SE8       30.06F
RUSH CITY      MOCLDY    53  43  69 SE6       30.08F
MOOSE LAKE     MOCLDY    39  34  81 CALM      30.07F
HINCKLEY       FAIR      50  45  81 SE3       30.08F
CLOQUET        MOCLDY    41  34  75 E3        30.09F
MCGREGOR       MOCLDY    45  37  76 SE5       30.07S
$$
MNZ071>073-080-081-089-090-097-098-020800-
   Southwest Minnesota

CITY           SKY/WX    TMP DP  RH WIND       PRES   REMARKS
MONTEVIDEO     CLEAR     63  45  51 S10       30.00S
GRANITE FALLS  CLEAR     60  42  50 SE13      30.03R
CANBY          MOCLDY    62  48  61 SE8       29.99S
MARSHALL       PTCLDY    59  45  58 S9        30.00F
REDWOOD FALLS  CLEAR     60  40  47 SE14      30.03F
OLIVIA         CLEAR     57  37  47 SE10      30.03S
PIPESTONE      MOCLDY    61  48  63 S12G17    30.01F
WINDOM         CLEAR     61  45  55 S10       30.06S
WORTHINGTON    PTCLDY    61  43  51 S15       30.05S
JACKSON        CLEAR     59  45  58 S7        30.08R
TRACY          PTCLDY    61  47  61 S10       30.02F
SLAYTON        MOCLDY    59  46  61 S13       30.04F
$$
MNZ065>067-074>077-082>085-091>093-020800-
   South Central Minnesota

CITY           SKY/WX    TMP DP  RH WIND       PRES   REMARKS
MANKATO        CLEAR     57  39  51 SE14      30.08F
NEW ULM        CLEAR     57  43  58 SE9       30.06F
ST JAMES       CLEAR     57  45  62 SE8       30.08S
FAIRMONT       CLEAR     55  41  58 SE9       30.08S
GLENCOE        CLEAR     59  44  57 SE8       30.06F
FARIBAULT      CLEAR     55  43  62 SE6       30.11S
OWATONNA       CLEAR     54  39  58 SE8       30.12R
WASECA         CLEAR     55  41  58 SE8       30.11S
ALBERT LEA     CLEAR     57  39  51 S8        30.12S
$$
MNZ078>079-086>088-094>096-020800-
   Southeast Minnesota

CITY           SKY/WX    TMP DP  RH WIND       PRES   REMARKS
ROCHESTER      CLEAR     50  41  71 SE7       30.15S
RED WING       CLEAR     54  43  66 E5        30.12S
STANTON        CLEAR     58  39  50 SE9       30.10S
DODGE CENTER   CLEAR     54  43  66 SE7       30.13S
WINONA         CLEAR     50  45  81 CALM      30.15F
AUSTIN         CLEAR     54  39  58 SE3       30.12F
PRESTON        CLEAR     51  40  66 SE6       30.15F
$$
ABBREVIATIONS USED IN REMARKS
   TC - TEMPERATURES IN CELSIUS
  WCI - WIND CHILL INDEX
   HX - HEAT INDEX
  VSB - VISIBILITY
$$


USA.gov is the U.S. government's official web portal to all federal, state and local government web resources and services.